Location: Ciserano
(45.5833°N, 9.6000°E)
Time: 01:24:43
(UTC+00:00)

FALCON 9 DEB - Pass Details

Date: 14 April 2021
Orbit: 369 x 385 km, 53.0° (Epoch: 10 May)

Event Time Altitude Azimuth Distance (km) Brightness Sun altitude
Exits shadow 01:39:08 17° 23° (NNE) 1,032 5.8 -27.0°
Drops below altitude 10° 01:40:28 10° 46° (NE) 1,386 6.7 -26.8°
Sets 01:42:51 0° 63° (ENE) 2,242 7.8 -26.5°
